Flag for U.S.A. Weather past 2 weeks in Oxnard, California, U.S.A.

Now
69 °F

Clear.


Feels Like: 69 °F
Forecast: 68 / 80 °F
Wind: No wind

Location: Oxnard Airport

Current Time: Aug 30, 2015 at 8:05:33 AM

Latest Report: Aug 30, 2015 at 6:51 AM


Visibility: 9 mi

Pressure: 29.88 "Hg

Humidity: 84%

Dew point: 64 °F

Location of OxnardLocation

Historic Weather in Oxnard — Graph

°F

Oxnard temperature yesterday

Maximum temperature yesterday: 79 °F (at 10:51 AM)
Minimum temperature yesterday: 66 °F (at 6:51 AM)
Average temperature yesterday: 74 °F

Past Weeks' High & Low Weather Summary

 TemperatureHumidityPressure
High86 °F (Aug 28, 12:51 PM)100% (Aug 17, 12:51 AM)29.98 "Hg (Aug 17, 12:51 AM)
Low62 °F (Aug 15, 6:51 AM)40% (Aug 28, 12:51 PM)29.80 "Hg (Aug 28, 6:51 PM)
Average71 °F78%29.89 "Hg
* Reported Aug 15 6:51 AM — Aug 30 6:51 AM, Oxnard, Weather by CustomWeather, © 2015

Note: Actual official high and low records may vary slightly from our data, if they occured in-between our weather recording intervals... More about our weather records

Advertising

Oxnard weather history for previous 24 hours

 ConditionsComfort  
Time TempWeatherWind HumidityBarometerVisibility
6:51 AM
Sun, Aug 30
69 °FClear.No wind84%29.88 "Hg9 mi
5:51 AM69 °FClear.No wind84%29.85 "Hg10 mi
4:51 AM70 °FClear.3 mph81%29.85 "Hg9 mi
3:51 AM70 °FClear.3 mph84%29.85 "Hg9 mi
2:51 AM70 °FClear.6 mph84%29.85 "Hg9 mi
1:51 AM71 °FClear.No wind87%29.84 "Hg8 mi
12:51 AM71 °FClear.No wind87%29.84 "Hg9 mi
11:51 PM
Sat, Aug 29
72 °FClear.8 mph81%29.84 "Hg9 mi
10:51 PM72 °FClear.5 mph81%29.84 "Hg9 mi
9:51 PM73 °FClear.5 mph81%29.84 "Hg9 mi
8:51 PM74 °FClear.9 mph79%29.83 "Hg10 mi
7:51 PM74 °FSunny.10 mph76%29.82 "Hg10 mi
6:51 PM76 °FSunny.12 mph72%29.82 "Hg10 mi
5:51 PM77 °FSunny.14 mph69%29.83 "Hg10 mi
4:51 PM77 °FSunny.12 mph69%29.84 "Hg10 mi
3:51 PM78 °FSunny.10 mph64%29.85 "Hg10 mi
2:51 PM78 °FSunny.9 mph64%29.87 "Hg10 mi
1:51 PM78 °FSunny.10 mph66%29.88 "Hg10 mi
12:51 PM78 °FSunny.12 mph69%29.89 "Hg10 mi
11:51 AM79 °FSunny.8 mph60%29.90 "Hg10 mi
10:51 AM79 °FSunny.7 mph60%29.91 "Hg10 mi
9:51 AM78 °FSunny.7 mph64%29.90 "Hg10 mi
8:51 AM76 °FSunny.6 mph69%29.89 "Hg9 mi
Weather by CustomWeather, © 2015

See weather overviewHow to use our weather pages